Location: Philomena
(55.1756°N, 111.6233°W)
Time: 23:58:48
(UTC+00:00)

SPROUT - Visible Passes

Search period start: 01 December 2023 00:00
Search period end: 11 December 2023 00:00
Orbit: 523 x 529 km, 98.0° (Epoch: 01 December)

Date Brightness Start Highest point End Pass type
(mag) Time Alt. Az. Time Alt. Az. Time Alt. Az.
01 Dec ? 00:10:48 10° NNW 00:13:18 17° NW 00:15:47 10° W visible
01 Dec ? 23:59:00 10° N 00:01:53 21° WNW 00:04:45 10° WSW visible
02 Dec ? 23:47:10 10° N 23:50:21 25° WNW 23:53:30 10° WSW visible
07 Dec ? 00:35:09 10° NNW 00:36:32 12° NW 00:37:55 10° WNW visible
08 Dec ? 00:22:26 10° NNW 00:24:33 14° NW 00:26:39 10° W visible
09 Dec ? 00:09:50 10° NNW 00:12:26 18° WNW 00:15:02 10° W visible
09 Dec ? 23:57:14 10° N 00:00:13 22° WNW 00:03:11 10° WSW visible
10 Dec ? 23:44:36 10° N 23:47:52 27° WNW 23:51:07 10° WSW visible
